Cloud_Cover
54 32 33 20 77 100 100 100 51 8 8 6 5 5 6 43 70 90 100 100 100 100 100 100 83 100 100 100 12 5 5 4 4 5 5 5 6 55 100 99 100 100 100 100
47 6 32 34 100 100 46 69 5 5 5 8 5 8 44 48 33 100 100 100 100 100 100 100 100 100 100 70 61 5 5 5 5 4 0 2 5 14 23 100 98 100 100 100
5 5 58 94 87 97 65 83 11 30 41 100 46 10 71 100 100 100 100 100 100 100 100 100 100 100 100 100 84 5 5 5 5 5 3 3 5 6 5 90 100 100 100 100
5 38 38 66 90 100 100 64 85 100 100 93 70 59 77 100 100 100 100 100 100 100 100 99 100 100 100 100 82 67 40 29 38 36 13 100 39 66 70 42 93 98 100 100
94 36 20 88 100 99 24 10 100 98 100 100 100 56 78 100 100 100 100 100 100 100 100 100 96 100 73 92 100 100 81 92 99 100 72 100 100 100 100 100 99 100 100 100
100 100 68 100 26 5 5 63 72 100 100 100 100 84 100 100 99 100 100 88 82 63 98 100 40 38 46 83 100 100 98 100 100 100 100 100 100 100 100 100 100 100 100 100
100 88 92 76 7 5 82 89 82 100 80 100 100 100 100 100 100 100 100 85 66 82 100 100 56 61 10 86 78 91 100 100 99 100 100 100 100 100 100 100 100 100 100 100
99 100 78 5 5 17 38 47 100 100 100 100 100 100 100 100 77 83 99 78 93 100 100 86 73 71 54 51 87 88 100 100 100 100 100 100 100 100 100 100 100 100 100 100
100 99 94 3 5 53 98 100 100 100 100 100 100 100 100 100 100 100 100 100 100 100 100 100 78 28 52 96 95 100 100 100 100 100 100 100 100 100 100 100 100 100 100 100
18 7 2 5 5 100 100 100 100 100 100 100 100 100 100 100 100 100 100 100 100 94 71 75 89 69 89 99 94 100 100 100 100 100 100 100 100 100 100 100 100 100 100 100
5 5 5 5 96 100 100 100 100 100 100 100 100 100 100 100 100 100 100 100 92 93 76 94 93 88 85 100 98 100 100 100 100 100 100 100 100 100 100 100 100 100 100 100
5 5 32 86 100 100 100 100 100 100 100 100 100 100 100 100 100 100 100 98 90 63 74 98 93 89 99 100 100 100 100 100 100 100 100 100 100 100 100 100 100 100 100 100
4 5 85 71 100 100 100 100 100 100 100 100 100 100 100 100 100 100 84 66 54 70 93 87 84 100 100 100 100 100 100 100 100 100 100 100 100 100 100 100 100 100 100 100
14 16 100 100 100 100 100 100 100 100 95 99 100 100 100 100 100 78 63 55 66 67 81 100 98 100 100 100 100 100 100 100 100 100 100 100 100 100 100 100 100 100 100 100
6 93 100 100 100 100 100 100 100 100 100 100 100 100 100 100 74 15 10 12 58 83 87 100 100 100 100 100 100 100 100 100 100 100 100 100 100 100 100 100 100 100 100 100
98 100 100 100 100 100 99 100 100 100 100 100 100 100 100 86 72 11 46 9 66 93 100 100 100 100 100 100 100 100 100 100 100 100 100 100 100 100 100 100 100 100 100 100
100 100 100 100 100 100 100 100 100 100 100 100 100 100 98 89 82 13 5 5 35 81 100 100 100 100 100 100 100 100 100 100 100 100 94 90 84 84 79 91 98 99 99 100
100 100 100 100 100 100 100 100 100 100 100 100 100 94 89 48 60 13 38 62 86 81 96 100 99 100 100 100 100 100 100 100 100 100 100 100 100 100 100 100 93 87 93 98
100 100 100 100 100 100 100 100 100 100 100 100 96 65 74 91 97 99 84 70 72 92 100 100 100 100 100 100 100 100 100 100 100 100 100 100 100 100 100 100 100 100 100 100
100 100 100 100 100 100 100 100 100 100 100 90 69 85 84 43 66 86 99 100 100 100 100 100 100 100 100 100 100 100 100 100 100 100 100 100 100 100 99 94 89 100 100 100
100 100 100 100 100 100 100 100 100 100 100 100 98 62 49 55 35 63 100 100 100 100 100 100 100 100 100 100 100 100 100 100 100 100 100 91 100 100 100 100 100 100 100 100
100 100 100 100 100 100 100 100 100 100 100 100 73 27 45 78 81 99 100 100 100 100 100 100 100 100 100 100 100 100 100 100 100 100 100 100 100 100 100 100 100 100 100 100
100 100 100 100 100 100 100 100 100 100 100 100 71 72 68 75 89 84 97 100 100 100 100 100 100 100 100 100 100 100 100 100 100 98 100 100 100 100 100 100 100 100 100 100
100 100 100 100 100 100 100 100 100 100 100 100 83 64 66 78 71 97 100 100 100 100 100 100 100 100 100 100 100 100 100 100 100 100 100 31 100 100 100 100 100 100 100 100
100 100 100 100 100 100 100 100 100 100 100 100 96 66 66 66 61 97 100 100 100 100 100 100 100 100 100 100 100 100 100 100 100 99 100 100 100 100 100 100 100 100 100 100
100 100 100 100 100 100 100 100 100 100 100 100 95 75 92 94 97 100 100 100 100 100 100 100 100 100 100 100 100 100 100 100 97 100 94 100 100 100 100 100 100 100 100 100
100 100 100 100 100 100 100 100 100 94 100 100 97 100 100 100 100 100 100 100 100 100 100 100 100 100 91 98 100 100 100 100 93 99 100 100 100 100 100 100 100 100 100 100